{"data":{"norad_id":62016,"epoch":"2026-05-25T01:24:15.079104Z","epoch_age_seconds":80387,"freshness":"FRESH","line1":"1 62016U 24213J   26145.05850786  .00166950  00000+0  13525-2 0  9998","line2":"2 62016  53.1581  24.5052 0001015  91.6101 268.5034 15.69760365 86913","mean_motion":15.69760365,"eccentricity":0.0001015,"inclination_deg":53.1581,"raan_deg":24.5052,"arg_perigee_deg":91.6101,"mean_anomaly_deg":268.5034,"bstar":0.0013525,"rev_number":8691,"period_min":91.73374688945,"perigee_km":358.89875037965,"apogee_km":360.26650746432,"semimajor_km":6737.719628922,"source":"CELESTRAK","updated_at":"2026-05-25T13:38:19.520089Z"}}